User: anonymous   Login
Location: Sunny Point
(33.0946°N, 85.0574°W)
Time: 06:40:11
(UTC+00:00)
Language:

CAS-6 - Orbit

View from above orbital plane
View from above orbital plane
View from above satellite
View from above satellite

Ground track
Ground track

The orbit data is extracted from the following two-line orbital elements,

1 44881U 19093C   24197.83587016  .00001585  00000-0  19722-3 0  9991
2 44881  97.8276 274.0669 0013360 224.9994 135.0139 14.83848656247291
Epoch (UTC): 15 July 2024 20:03:39
Eccentricity: 0.0013360
inclination: 97.8276°
perigee height: 608 km
apogee height: 626 km
right ascension of ascending node: 274.0669°
argument of perigee: 224.9994°
revolutions per day: 14.83848656
mean anomaly at epoch: 135.0139°
orbit number at epoch: 24729

The dashed part of the orbit path shows where the satellite is in the earth's shadow,  

DLR